Theta_e
316 316 318 319 319 317 317 316 316 315 314 314 315 316 316 316 317 317 317 317 318 316 314 318 322 322 321 319 315 315 317 317 316 317 317 317 317 317 318 319 319 319 319 318 318 318 318 317 316 316 317 316 315 314 313 312 311 310 309 308 308 308 308 308 307 307 308 309 309 311 311 309 309 310 311 310 310 309 309 309 307 304 300 295 293 293 293
317 316 317 320 319 316 316 316 315 314 314 314 315 315 315 316 316 316 316 317 317 315 315 317 317 315 315 314 315 315 315 316 317 317 317 317 318 318 319 318 318 318 318 318 318 318 318 317 317 317 317 317 316 314 313 313 311 310 309 308 308 307 307 308 307 306 306 307 309 310 309 308 308 310 311 310 309 309 309 308 306 303 299 295 293 293 293
318 317 316 318 318 316 316 317 316 314 314 314 314 315 315 315 316 316 316 317 316 314 315 316 314 313 314 314 313 313 315 317 317 317 317 317 318 318 318 318 318 318 318 318 318 318 318 317 317 317 317 317 316 314 313 313 311 310 309 308 307 307 307 307 307 306 306 306 308 307 307 307 308 310 310 309 309 308 308 306 304 302 299 295 293 293 293
318 318 317 317 315 314 315 316 317 315 314 313 313 314 315 315 316 316 315 316 316 315 316 315 313 313 312 312 312 313 315 317 317 317 317 317 318 318 318 318 318 317 317 318 318 317 317 317 317 317 316 316 316 315 314 313 311 310 309 308 307 307 307 307 306 306 305 305 306 306 306 306 307 308 309 309 309 308 308 306 303 301 299 296 293 293 293
318 317 317 316 316 316 317 317 316 315 314 313 313 314 314 314 315 316 316 316 315 316 318 317 317 317 314 312 312 314 315 316 316 317 317 317 318 318 318 318 317 317 317 317 317 317 316 316 317 316 316 316 316 315 313 312 311 310 309 308 307 306 306 306 306 306 305 305 305 305 305 305 306 307 309 309 309 309 308 306 302 299 298 295 293 292 293
318 317 316 317 317 318 319 319 317 316 315 314 314 315 314 314 314 314 315 315 314 315 316 316 317 318 315 313 314 315 316 316 316 316 316 317 317 317 317 317 316 317 317 316 316 316 316 316 316 316 316 316 315 314 313 312 311 309 309 308 307 306 306 305 305 305 305 304 304 305 305 306 306 307 308 308 308 308 307 305 301 298 296 294 292 292 292
317 317 316 318 319 318 320 323 320 316 315 315 314 315 314 313 314 314 314 314 314 314 314 314 313 314 314 314 314 315 315 315 316 316 316 316 316 316 316 316 315 316 316 315 315 315 315 315 315 315 315 315 314 313 312 312 310 309 308 307 306 305 305 304 304 304 304 304 304 304 305 306 306 306 307 307 307 307 306 305 302 297 294 293 292 291 292
316 317 317 319 320 318 319 323 321 316 316 316 315 316 315 314 314 314 314 313 314 313 313 313 313 313 312 313 313 314 314 315 315 315 315 315 315 315 315 315 315 315 314 314 314 314 314 314 314 315 315 314 314 312 312 311 309 308 307 305 305 304 304 303 303 303 303 303 304 304 305 306 306 306 306 306 306 306 304 303 302 298 294 292 291 291 291
316 318 318 318 319 319 319 320 319 315 316 318 317 317 316 315 313 314 313 314 314 313 312 313 313 312 312 312 313 313 314 314 314 314 315 315 314 314 314 314 314 314 314 314 313 313 313 313 313 314 314 313 313 312 311 310 308 307 305 304 304 303 302 302 302 302 302 302 303 303 304 305 306 306 306 306 306 305 304 303 302 300 295 292 290 290 290
315 317 319 318 319 320 319 318 317 315 314 315 316 317 318 316 314 313 313 313 313 313 313 312 311 312 313 314 314 313 313 314 314 314 314 314 314 314 314 314 314 314 314 314 313 313 313 312 312 312 312 312 311 310 309 308 306 305 304 304 303 302 301 301 301 301 301 301 302 302 303 304 305 305 305 305 304 303 303 301 301 300 298 295 292 290 289
316 317 319 319 320 320 319 319 320 316 312 312 313 316 318 317 314 312 312 314 314 313 312 311 311 313 315 315 314 313 314 314 314 314 314 314 314 314 314 314 314 314 314 314 313 313 312 311 311 310 310 310 309 308 307 306 305 304 303 302 302 301 300 300 300 300 300 300 300 301 301 302 303 303 303 302 301 301 300 299 298 297 296 295 293 291 288
317 317 317 318 318 319 321 322 319 313 311 312 316 319 319 317 315 313 312 312 313 312 311 311 312 314 315 315 314 313 313 313 313 314 314 313 314 314 313 313 314 313 313 313 313 312 311 310 309 309 308 308 307 306 305 304 303 302 302 301 300 300 299 299 299 299 299 299 299 299 300 300 301 301 300 300 299 298 297 297 296 295 295 294 293 292 290
316 316 318 318 317 319 321 318 311 309 311 315 319 321 318 314 314 314 312 311 312 313 311 311 312 313 313 314 313 312 312 313 313 313 313 313 313 313 313 313 313 313 313 312 311 311 309 308 308 307 307 306 305 304 303 302 302 301 300 300 299 299 299 299 299 298 298 298 298 298 299 299 298 298 297 297 296 296 296 296 296 296 295 295 295 294 293
315 316 317 316 317 319 318 312 306 308 315 319 318 317 315 313 314 315 314 313 314 314 312 311 312 313 313 313 312 311 312 312 311 312 312 312 312 312 312 312 312 311 311 310 309 308 307 307 306 306 305 305 304 304 303 302 302 301 300 300 299 299 299 299 298 298 298 298 298 298 297 297 297 297 296 296 296 296 297 297 296 296 296 295 295 295 294
316 316 316 317 319 318 314 311 310 312 316 318 317 315 314 314 314 314 315 315 316 316 314 313 313 313 312 312 311 311 311 311 311 311 311 311 312 312 311 311 310 309 308 307 307 306 306 306 305 305 305 305 304 304 303 303 302 301 301 300 300 299 299 299 298 298 298 298 297 297 297 297 297 298 298 298 298 298 298 297 297 296 296 295 295 294 293
315 316 317 317 316 314 312 313 314 313 313 313 313 313 314 313 313 314 314 315 316 316 316 315 314 313 312 311 311 310 310 310 310 310 311 311 311 310 309 309 308 307 307 306 306 306 306 306 305 305 305 305 305 305 304 303 303 302 301 301 300 300 300 300 299 299 299 299 298 298 298 299 299 299 299 298 298 297 297 297 296 295 294 293 293 292 291
315 314 314 313 310 308 309 311 312 311 311 311 311 310 310 311 312 313 314 315 315 316 316 315 313 312 312 311 310 310 309 310 310 310 310 309 309 308 308 307 307 306 306 307 307 307 306 306 306 305 304 304 305 305 304 303 303 302 302 302 302 301 301 301 301 300 300 300 299 299 299 299 298 298 297 297 296 295 295 294 293 292 291 290 290 290 289
315 312 310 309 307 308 309 309 310 311 311 311 310 310 310 310 311 312 313 314 315 315 315 314 312 312 312 310 310 309 309 309 309 309 308 308 308 307 307 307 307 306 306 307 307 307 307 306 305 304 303 302 304 304 304 304 303 303 303 303 302 302 302 301 301 300 300 299 298 297 297 296 296 295 295 294 293 293 292 291 291 290 290 290 290 289 289
314 315 315 313 310 310 310 310 310 311 311 311 311 310 311 311 311 311 311 313 313 314 314 313 313 312 311 311 310 309 309 308 308 307 307 307 307 307 307 307 307 306 306 306 306 306 306 305 304 304 303 302 303 304 304 303 303 302 302 302 302 301 301 300 299 298 298 297 296 295 295 294 294 293 293 292 292 292 291 291 291 291 291 291 291 290 290
312 315 316 312 308 308 308 308 308 308 310 311 311 312 312 311 311 310 310 311 311 312 313 313 312 312 311 310 310 309 308 307 307 306 306 306 306 306 306 306 305 305 305 305 305 305 305 304 303 303 303 302 302 302 302 302 301 301 300 300 299 299 298 297 297 296 295 295 295 294 294 293 293 293 293 292 292 292 292 291 291 291 291 290 290 290 290
312 313 312 310 308 308 309 309 308 309 310 310 311 311 311 309 309 309 309 310 310 310 311 311 311 311 310 309 308 308 307 306 306 305 305 305 305 305 304 304 303 303 304 304 304 304 304 303 302 302 302 301 301 300 300 299 299 298 298 297 297 296 296 296 295 295 295 294 294 294 293 293 293 292 292 291 291 291 291 290 290 290 290 290 290 290 290
312 312 312 312 312 311 311 311 311 312 312 310 310 309 309 309 309 309 309 309 309 308 309 310 309 309 309 308 306 306 306 305 305 304 304 303 303 303 303 302 302 302 303 303 303 303 302 301 300 300 299 299 298 297 297 297 297 296 296 296 295 295 295 294 294 293 293 293 292 292 292 291 291 291 290 290 290 290 290 290 290 290 290 290 290 290 289
312 311 311 310 310 311 312 311 311 312 312 311 310 310 310 310 309 308 308 308 308 308 308 308 308 308 308 307 306 305 305 304 303 303 303 303 303 302 301 301 300 300 300 300 300 299 299 298 297 297 297 297 296 296 296 295 295 294 294 294 293 293 292 292 292 291 291 291 291 291 290 290 290 290 290 290 290 290 290 290 290 290 290 290 290 290 290
310 310 310 310 310 310 311 311 311 311 311 311 311 310 310 309 308 307 306 306 307 308 308 307 306 306 307 306 305 304 304 303 302 302 301 301 301 300 299 298 298 298 298 297 297 296 296 296 296 296 296 295 295 294 294 293 292 292 292 292 292 291 291 291 291 290 290 290 290 290 290 290 290 290 290 290 290 290 290 290 290 290 290 290 290 290 290
309 309 309 309 310 310 311 311 310 310 310 310 310 310 309 308 307 306 305 306 306 307 308 307 306 305 305 305 304 303 303 302 301 300 299 298 298 297 297 296 296 296 296 296 295 295 295 296 296 295 295 294 293 292 292 292 291 291 291 291 291 291 291 291 291 291 290 290 290 290 290 290 290 290 290 290 290 290 290 290 290 290 290 290 290 290 289
308 308 308 308 308 309 309 309 308 309 310 309 309 309 308 306 305 305 305 305 306 306 307 306 305 304 304 304 303 302 302 300 299 298 297 297 296 296 296 296 296 295 295 295 294 294 295 295 294 293 293 292 292 291 291 291 291 291 291 291 291 291 291 291 291 291 291 290 290 290 290 290 290 290 290 290 290 290 290 290 290 290 290 289 289 289 288
307 307 307 306 306 307 308 307 308 309 309 309 308 308 306 305 304 304 305 305 305 305 305 304 304 303 302 302 301 301 300 299 297 296 296 296 296 295 295 295 295 294 294 294 293 293 293 293 292 292 292 292 291 291 291 291 291 291 291 291 291 291 291 291 291 291 290 290 290 290 290 290 290 290 290 290 290 290 290 290 289 289 289 288 288 288 287
306 306 305 305 306 307 307 308 308 308 308 308 307 306 304 304 303 304 304 304 303 303 303 303 302 302 302 301 300 299 298 297 296 296 295 295 295 295 294 294 294 294 293 293 293 293 292 292 292 291 291 291 291 291 291 291 291 291 291 291 291 291 291 291 290 290 290 290 290 290 290 290 290 290 290 290 290 290 289 289 288 288 288 287 287 287 286
305 305 305 305 305 306 306 306 307 307 307 306 305 303 303 303 302 302 303 302 302 302 302 301 301 300 300 300 299 298 297 296 296 295 295 295 294 294 293 293 293 293 293 292 292 292 292 291 291 291 291 291 291 291 291 291 290 290 290 291 291 291 291 290 290 290 290 290 290 290 290 290 290 290 290 289 289 288 288 288 287 287 287 287 286 286 286
304 303 303 303 304 304 304 305 306 306 306 305 304 302 302 302 302 301 301 301 301 301 301 300 299 298 298 298 298 297 297 296 296 296 295 294 293 293 293 293 293 292 292 292 292 292 292 291 291 291 291 291 291 291 291 291 290 291 291 290 290 291 291 291 291 291 291 291 290 290 290 290 289 289 289 288 288 287 287 287 287 286 286 286 286 285 285
303 302 302 303 302 302 303 303 304 305 305 304 303 301 300 300 300 300 299 300 300 300 300 299 297 297 297 297 297 296 296 296 296 295 294 293 293 293 293 293 293 292 292 292 292 292 292 291 291 291 291 291 291 291 291 291 291 290 291 291 291 291 291 291 291 290 290 290 290 290 289 289 288 288 288 287 287 287 287 286 286 286 286 285 285 284 284
301 300 300 300 301 300 300 301 301 303 303 302 301 301 301 300 299 299 299 300 300 300 300 300 300 299 299 298 297 296 296 296 295 294 293 293 293 292 292 292 292 292 292 292 292 292 292 291 291 291 291 291 291 291 291 291 291 291 291 291 291 291 291 290 290 290 290 289 289 288 288 288 287 287 287 287 286 286 286 286 285 285 284 284 283 283 283
299 298 299 300 300 299 299 300 300 301 302 302 302 302 301 300 299 299 300 300 301 301 301 301 301 301 300 298 297 296 296 295 294 293 293 292 292 292 292 292 292 292 292 292 292 292 291 291 291 291 291 290 290 291 291 291 291 291 291 291 290 290 290 290 290 289 289 288 288 287 287 287 287 287 286 286 286 285 285 285 284 284 283 283 283 282 282
297 298 298 300 300 299 300 301 302 301 302 302 302 301 299 298 298 298 299 300 301 301 301 301 300 299 298 298 297 296 295 294 293 292 292 292 292 292 292 292 291 291 291 291 291 291 291 291 290 290 290 290 290 291 291 291 290 290 290 290 290 290 289 289 288 288 287 287 287 287 287 286 286 286 286 285 285 285 284 284 283 283 283 282 282 281 281
295 296 296 297 297 298 299 300 301 302 302 302 302 301 299 298 297 299 300 301 301 301 300 299 298 297 297 296 296 295 294 294 293 292 292 292 292 292 292 291 291 291 291 291 291 291 291 290 290 290 290 290 290 290 290 290 290 290 290 290 289 289 288 288 287 287 287 287 286 286 286 286 286 285 285 285 284 284 283 283 282 282 282 281 281 280 280
292 294 294 295 295 297 298 298 299 300 301 302 302 302 300 298 298 299 300 301 300 299 298 296 296 296 296 295 294 293 293 292 292 292 292 292 292 291 291 291 291 291 291 291 291 290 290 290 290 290 290 290 290 290 290 290 290 289 289 289 288 288 287 287 287 286 286 286 286 286 285 285 285 285 284 284 283 283 282 282 281 281 280 280 279 279 279
289 290 292 293 293 295 296 296 297 298 299 300 301 302 301 300 298 298 298 298 298 297 296 295 295 295 295 294 293 293 292 292 292 292 292 291 291 291 291 291 291 291 291 291 290 290 290 290 290 290 290 290 290 289 289 289 289 288 288 287 287 287 286 286 286 286 286 285 285 285 285 284 284 284 283 283 282 282 281 281 280 280 279 279 279 278 278
286 287 289 291 292 293 294 295 296 297 298 298 299 300 300 300 298 296 295 296 296 295 294 294 294 294 294 293 292 292 292 291 291 291 291 291 291 291 291 291 291 290 290 290 290 290 290 290 290 290 289 289 289 289 289 288 288 287 287 286 286 286 286 285 285 285 285 285 284 284 284 283 283 283 282 281 281 280 280 280 279 279 279 278 278 277 276
284 285 286 289 290 290 291 293 295 296 297 297 297 298 298 298 297 295 294 294 294 294 294 294 294 293 293 292 292 291 291 291 291 291 291 291 291 291 291 290 290 290 290 290 290 290 289 290 289 289 289 289 288 288 287 287 286 286 286 286 285 285 285 285 284 284 284 284 283 283 283 282 282 281 281 280 280 280 279 279 278 278 277 277 276 276 275
283 284 285 287 288 288 288 290 292 294 295 295 295 295 296 295 294 294 294 294 293 293 293 293 293 293 292 292 292 291 291 291 291 291 291 291 291 290 290 290 290 289 289 289 289 289 289 289 288 288 288 288 287 287 286 286 286 285 285 285 285 284 284 284 283 283 283 282 282 282 281 281 281 280 280 279 279 279 278 278 277 277 276 276 275 275 274
280 282 284 285 285 285 285 287 289 291 293 293 293 294 294 294 293 293 293 294 293 293 292 292 292 292 292 292 291 291 291 291 290 290 290 290 290 290 290 289 289 289 289 289 289 288 288 288 287 287 287 286 286 285 285 285 285 284 284 284 284 284 283 283 282 282 282 281 281 281 280 280 280 279 279 278 278 277 277 276 276 275 275 275 274 274 274
278 281 282 282 283 283 283 284 286 288 290 291 292 293 293 293 292 292 293 293 293 292 292 291 291 291 291 291 291 291 291 290 290 290 289 289 289 289 289 289 289 289 288 288 288 287 287 286 286 286 285 285 285 285 284 284 284 284 284 283 283 282 282 282 281 281 281 280 280 280 279 279 279 278 278 277 277 276 275 275 275 274 274 274 274 273 273
277 279 280 281 281 281 281 282 284 286 287 289 290 291 292 292 291 291 292 292 292 292 291 291 290 290 290 291 291 291 290 290 290 290 289 289 288 288 288 288 288 288 288 287 287 286 286 285 285 284 284 284 284 284 283 283 283 283 282 282 282 281 281 280 280 280 279 279 279 279 278 278 277 277 276 276 275 275 274 274 274 273 273 273 273 273 273
275 277 278 279 280 280 280 281 282 283 285 287 288 289 289 289 289 289 290 290 290 290 290 290 290 290 290 290 290 290 290 290 289 289 289 288 288 287 287 286 286 286 286 286 286 285 285 284 284 283 283 283 283 283 282 282 282 281 281 281 280 280 279 279 279 279 279 278 278 278 277 277 276 276 275 275 274 274 274 273 273 273 273 272 272 272 272
273 274 276 277 278 278 279 280 280 281 283 284 285 286 287 287 287 287 287 288 289 289 289 289 289 289 289 289 289 289 289 289 288 288 288 287 287 287 287 286 285 285 285 285 284 284 283 283 283 282 282 282 282 281 281 281 280 280 280 279 279 279 278 278 278 278 278 277 277 277 276 275 275 274 274 274 273 273 273 272 272 272 272 272 271 271 271
272 272 274 275 276 277 278 279 279 280 281 282 284 285 284 285 286 286 286 286 288 288 288 288 288 288 288 288 288 288 288 288 287 287 286 286 286 285 285 285 285 283 283 283 283 282 282 282 281 281 281 281 280 280 280 279 279 278 278 278 278 278 277 277 277 277 277 276 276 275 275 274 274 273 273 273 273 272 272 272 271 271 271 271 271 271 270
270 271 272 273 274 276 277 277 278 279 280 281 283 283 282 282 284 285 285 285 286 286 286 287 287 287 287 287 286 287 287 287 286 286 285 284 284 284 283 283 283 282 282 281 281 281 280 280 280 280 279 279 278 278 278 277 277 277 277 277 277 277 277 276 276 276 275 275 274 274 274 273 273 272 272 272 272 272 271 271 271 270 270 270 270 270 270
269 270 271 272 273 274 274 275 276 278 279 280 281 282 281 281 283 283 284 284 284 284 285 285 285 285 286 285 285 285 284 284 284 284 283 283 282 282 281 281 281 280 280 280 279 279 279 279 278 278 277 277 277 277 276 276 276 276 276 276 276 276 275 275 275 274 274 274 273 273 272 272 272 272 271 271 271 271 271 270 270 270 270 269 269 269 269
268 269 269 270 270 271 271 273 275 277 278 278 280 280 280 280 281 282 282 282 282 283 283 283 283 283 283 283 282 282 282 281 281 281 281 281 281 280 279 279 279 278 278 278 278 277 277 277 276 276 276 275 275 275 275 275 275 275 275 275 275 275 274 274 274 273 273 272 272 272 271 271 271 271 271 270 270 270 270 270 269 269 269 269 269 269 268
267 267 268 268 269 269 271 273 274 275 275 276 277 277 277 278 279 279 278 278 279 280 280 280 279 279 279 279 279 279 279 279 279 279 279 279 279 278 278 278 277 277 277 277 276 276 275 275 275 275 274 274 274 274 274 274 274 274 274 274 274 273 273 272 272 272 272 271 271 271 270 270 270 270 270 270 269 269 269 269 269 269 268 268 268 268 268
266 267 267 268 268 268 269 270 271 272 273 273 274 274 274 276 277 276 275 275 276 277 277 277 276 276 276 276 276 277 277 277 277 277 277 277 277 276 276 276 276 275 275 275 274 274 274 274 274 274 273 273 273 273 273 273 273 273 273 272 272 272 272 271 271 271 271 270 270 270 270 269 269 269 269 269 269 269 268 268 268 268 268 268 268 268 268
266 266 266 266 267 267 268 268 268 269 270 270 271 271 272 273 274 273 272 272 273 274 275 276 275 274 273 274 275 275 275 275 275 275 275 275 275 274 274 274 274 274 273 273 273 273 273 273 273 273 273 273 273 272 272 272 272 272 272 271 271 271 271 270 270 270 270 269 269 269 269 269 269 269 269 268 268 268 268 268 268 267 267 267 267 268 268
Wind_Speed
17 16 7 8 8 8 9 13 15 15 14 15 16 19 21 17 10 13 19 12 15 24 16 10 11 9 8 11 14 14 13 16 20 20 22 23 21 17 14 16 22 25 26 26 26 27 28 26 23 20 20 22 22 22 22 23 25 26 27 28 29 30 31 32 33 34 34 34 34 34 33 34 35 34 34 35 34 34 35 34 34 37 44 48 48 46 44
14 16 8 8 9 5 3 8 12 14 16 19 21 23 24 21 15 16 21 18 21 23 13 9 14 18 20 20 18 15 13 17 21 21 23 25 23 21 22 23 25 27 29 29 28 29 30 29 28 26 25 25 24 22 22 23 25 26 28 29 30 31 32 32 33 33 33 34 34 34 34 35 35 34 32 33 34 35 34 33 33 37 43 48 49 46 44
9 14 10 7 8 6 5 5 7 12 16 20 22 22 18 15 14 19 22 20 22 18 7 9 17 22 22 19 19 20 22 25 28 29 30 30 29 30 30 30 32 33 33 32 31 31 31 30 31 31 29 26 24 23 22 22 24 26 28 29 30 31 32 33 33 32 32 33 34 35 34 34 34 34 32 31 31 32 31 31 33 36 42 47 49 47 45
9 14 14 8 5 3 5 7 9 15 17 16 16 14 12 13 16 19 17 16 19 10 6 10 16 16 15 16 20 24 28 31 35 37 38 38 37 37 38 39 40 39 38 36 34 33 31 30 31 31 30 27 25 25 22 21 23 25 27 29 30 30 31 33 34 33 32 32 33 34 33 33 34 34 32 29 29 30 29 29 31 35 40 46 48 47 46
10 15 14 7 4 3 7 12 18 21 18 12 9 11 16 18 17 14 12 16 20 12 5 9 11 9 12 18 24 27 30 33 37 40 42 43 43 43 43 42 42 40 39 37 34 31 30 29 29 29 28 27 26 25 22 20 21 23 26 28 29 30 31 32 34 34 33 32 32 31 31 31 32 33 32 30 30 29 28 27 30 34 39 45 48 48 46
10 14 8 4 6 9 10 12 17 20 18 15 15 18 22 21 15 13 14 16 21 17 10 11 11 11 17 24 29 32 33 35 38 40 42 43 43 43 43 40 39 37 35 33 31 29 28 27 28 28 28 28 26 23 21 19 20 22 24 27 28 29 30 32 34 34 34 33 31 29 29 29 29 31 31 30 30 30 28 28 30 34 38 44 47 48 46
6 6 3 4 9 10 7 6 9 14 17 21 23 24 25 22 16 15 18 21 24 23 20 21 21 21 25 30 32 32 34 39 41 40 40 41 40 40 38 35 34 32 31 30 29 28 27 26 27 28 28 28 26 24 21 20 21 22 23 25 26 27 29 31 33 34 34 33 31 29 29 29 29 29 29 29 29 31 31 29 30 32 37 42 45 46 45
3 3 5 7 7 3 4 7 6 6 9 13 16 17 22 22 19 17 20 25 29 26 26 30 30 25 22 24 28 33 34 38 40 40 40 40 38 37 35 33 32 31 30 30 28 26 26 26 27 27 27 27 26 24 21 19 20 21 22 23 24 25 27 29 31 32 32 32 31 30 29 30 30 28 27 28 29 31 31 30 30 31 35 40 43 45 45
5 6 8 6 5 5 7 12 9 6 8 10 11 12 17 19 19 20 20 25 28 25 26 32 28 19 13 13 26 39 39 38 40 41 41 40 37 36 35 33 32 30 27 26 25 24 24 24 26 27 26 26 25 22 20 19 19 20 20 20 20 21 24 26 28 30 30 30 30 29 28 28 28 27 27 28 28 29 30 30 29 30 33 37 40 42 43
6 8 7 6 6 7 12 18 12 11 14 14 11 10 12 13 18 23 22 24 26 21 23 25 16 10 7 8 21 36 36 34 37 37 36 36 32 30 30 28 26 23 21 21 21 21 21 20 21 23 23 22 20 18 17 17 16 17 17 16 16 17 19 21 23 24 26 26 26 27 26 25 25 26 27 27 26 26 27 27 27 28 29 31 34 37 39
6 8 8 7 8 7 11 16 9 12 20 15 9 5 10 15 19 23 23 22 22 20 23 18 9 7 7 9 20 29 26 23 27 26 25 26 23 22 22 19 18 18 17 18 18 17 16 16 17 18 18 17 16 14 13 13 13 13 12 11 11 12 13 15 17 18 20 21 22 23 23 23 24 25 25 24 22 22 22 23 23 23 24 25 28 32 34
9 9 8 7 5 6 10 10 5 12 22 19 11 5 12 14 16 22 24 20 21 27 29 16 9 7 12 15 23 27 20 17 19 18 17 18 17 16 15 14 15 16 17 18 17 14 13 14 14 15 14 14 13 11 11 11 11 10 10 10 9 10 10 11 12 13 15 16 17 17 18 20 20 21 20 19 18 17 17 18 18 18 18 19 22 25 28
12 12 11 7 4 6 9 7 7 16 20 15 8 11 10 4 5 17 26 26 29 36 30 16 13 21 30 31 31 25 16 15 15 14 14 14 13 13 14 15 17 18 18 17 15 13 13 12 12 13 13 12 12 13 14 14 14 14 14 13 13 13 12 12 11 11 11 12 12 13 14 15 15 15 15 13 12 12 12 12 12 12 13 14 16 18 20
10 11 11 8 6 8 8 6 12 17 13 7 10 7 2 4 2 11 22 29 33 37 32 25 28 36 39 36 33 26 21 18 15 13 14 14 14 16 17 17 17 16 16 14 12 11 11 11 12 13 14 15 16 17 18 17 17 17 17 16 16 15 15 14 13 12 12 11 11 11 11 11 11 11 10 9 9 9 9 9 9 10 11 11 12 13 14
7 7 9 8 8 9 13 13 8 8 10 10 10 6 5 9 9 11 19 25 27 30 33 33 36 37 33 30 29 28 25 20 17 17 16 15 17 17 16 15 14 13 12 12 12 13 14 15 15 15 17 18 19 19 19 19 19 19 18 18 17 17 16 16 15 14 14 13 13 12 11 11 11 10 10 10 10 10 11 11 11 11 11 10 10 9 9
7 7 8 6 4 5 20 18 6 11 17 12 6 5 10 14 14 13 17 21 22 25 29 31 31 32 30 28 26 24 22 21 19 18 16 16 16 15 14 14 13 13 14 15 16 17 18 18 18 18 18 19 20 20 20 19 19 19 19 18 18 17 17 17 16 16 16 15 15 14 14 14 13 13 13 14 13 13 13 12 11 10 9 8 7 7 6
5 4 6 4 6 3 15 14 7 12 20 18 12 8 9 10 11 14 17 19 20 22 26 26 26 27 27 26 24 21 19 18 17 15 15 16 15 15 15 16 16 16 17 18 19 20 19 19 19 19 19 19 19 19 18 18 18 17 18 18 18 18 18 18 18 18 17 17 17 17 16 16 16 15 15 14 14 13 12 11 9 8 7 6 6 6 5
3 6 10 9 9 12 14 17 15 15 18 20 19 17 16 14 13 13 14 17 18 20 23 24 24 24 24 23 21 19 18 17 16 17 17 17 17 17 17 18 19 19 19 19 19 20 20 20 20 20 20 19 17 17 17 17 18 17 18 19 19 19 20 20 19 19 19 19 19 18 18 17 16 15 14 14 13 12 11 10 9 8 7 6 5 5 4
4 7 9 10 14 19 21 21 23 24 23 22 20 21 23 25 25 21 18 17 17 19 22 23 23 22 21 20 20 20 19 18 18 19 19 19 19 18 18 19 19 19 19 19 19 19 19 21 21 21 21 20 18 18 18 19 19 19 19 19 19 20 20 20 19 19 19 18 18 18 17 16 15 15 14 12 11 10 10 9 8 7 6 5 4 4 4
6 6 7 9 13 17 18 18 19 21 23 22 21 21 24 28 29 27 23 20 18 19 21 22 21 20 20 20 20 20 19 19 20 21 20 20 20 19 19 19 18 18 18 19 19 19 19 21 21 21 21 20 19 19 18 19 19 19 19 19 19 19 19 19 19 18 18 17 17 16 15 15 14 13 12 11 11 10 9 8 7 6 5 4 3 4 4
5 6 9 13 12 10 13 20 23 24 24 23 24 25 25 24 25 25 24 22 20 19 19 21 21 20 20 20 20 20 21 22 22 22 21 21 21 21 20 19 19 19 19 18 19 19 19 21 20 20 20 19 19 19 18 18 19 19 19 19 19 19 19 18 18 18 17 17 16 15 15 15 15 14 13 12 12 10 9 8 7 5 4 4 4 4 4
6 7 9 11 8 6 13 21 24 24 25 26 28 29 27 25 24 23 23 23 20 18 18 19 19 19 19 18 19 21 22 23 23 23 23 23 23 22 22 21 20 19 18 18 18 19 20 20 19 19 20 20 20 20 19 19 19 18 19 20 19 19 19 18 18 17 17 17 16 15 15 14 14 14 13 12 11 9 7 7 6 5 4 3 4 4 6
9 12 13 11 7 9 20 27 24 21 23 25 29 32 32 29 26 23 23 23 22 20 20 19 17 17 17 18 21 23 24 24 24 24 24 24 24 23 22 22 21 20 19 18 18 19 21 21 20 21 21 21 21 21 20 20 19 17 17 18 18 18 18 17 17 16 15 15 15 14 14 13 12 12 11 10 10 9 7 6 4 3 3 4 6 7 8
13 20 25 21 16 18 27 32 27 23 23 24 27 30 30 28 25 23 23 23 21 20 19 18 17 16 17 20 23 25 25 26 26 25 25 24 24 24 23 22 21 21 20 20 20 21 22 22 22 22 22 22 21 20 20 20 18 16 15 15 16 17 17 16 16 15 14 14 13 13 13 12 11 11 10 9 8 7 6 4 4 4 5 6 8 9 10
22 27 28 24 22 24 27 28 25 23 21 22 24 27 28 27 25 23 23 22 20 19 18 18 17 18 20 22 24 25 26 27 27 26 26 25 24 23 23 22 22 22 23 22 22 22 23 23 22 22 22 21 21 20 19 19 18 16 15 14 14 15 16 15 15 14 13 13 12 11 11 11 10 10 8 7 6 5 5 5 6 6 7 8 9 9 10
34 34 28 21 20 23 22 22 23 24 22 22 24 26 28 27 26 24 22 21 20 18 19 19 20 21 22 23 24 25 27 27 27 26 26 25 25 24 24 24 24 23 23 23 23 23 23 23 22 21 21 21 21 20 19 19 19 17 15 14 14 13 13 13 12 12 11 11 10 10 10 9 9 8 7 6 6 7 7 7 7 7 8 8 9 9 10
37 36 28 17 16 23 27 25 24 24 23 23 25 27 28 26 25 23 22 21 20 19 20 20 21 22 23 23 24 26 26 27 28 27 26 26 26 25 25 25 24 24 23 23 23 23 23 23 22 21 21 21 20 20 19 18 18 16 15 14 13 12 12 11 11 11 11 11 10 10 9 9 8 8 7 7 8 8 8 8 8 8 8 7 8 9 9
31 32 28 20 19 26 30 28 25 25 24 22 24 27 27 25 24 24 24 23 21 21 21 21 21 23 24 25 26 27 27 28 28 28 27 26 25 25 25 25 25 24 24 23 23 23 23 22 22 21 20 20 20 19 18 17 16 15 14 13 12 12 12 12 12 11 11 11 11 10 10 9 9 9 9 9 9 9 8 7 7 7 7 7 7 8 9
30 28 28 28 27 26 24 21 22 25 25 22 23 25 26 26 26 26 25 24 23 23 23 23 23 24 25 25 27 28 28 28 27 26 25 25 25 26 27 26 26 25 24 23 23 23 23 22 21 20 20 19 18 17 16 16 15 14 13 12 12 12 12 12 12 12 11 11 11 11 11 10 10 10 10 9 8 8 7 7 6 6 6 7 8 9 11
30 25 24 26 26 24 21 21 22 24 24 23 24 26 26 27 28 27 25 25 25 25 24 24 24 24 25 25 26 26 26 26 25 24 25 27 27 28 28 27 26 26 25 24 23 23 22 22 21 19 18 18 17 16 15 15 14 14 14 13 13 13 12 12 12 12 12 11 11 11 11 11 10 9 8 8 7 6 6 6 6 7 8 9 10 12 12
23 22 24 25 24 22 22 21 21 22 23 23 24 26 28 29 30 29 28 27 27 26 25 24 24 25 25 25 26 26 25 25 24 25 27 28 29 29 28 27 26 25 25 24 22 21 21 20 19 18 17 16 16 16 15 15 15 15 15 14 14 13 13 12 12 12 12 12 11 11 10 9 8 8 7 7 6 6 6 6 7 8 10 11 12 13 13
16 18 20 21 21 20 20 20 21 22 23 24 27 30 32 33 33 33 32 31 30 29 28 27 27 27 26 26 27 28 27 26 27 28 29 30 30 30 29 27 25 23 22 21 20 19 19 18 18 17 17 16 16 16 16 16 16 15 14 14 14 13 13 13 13 12 12 11 10 9 8 8 7 7 7 7 7 7 7 8 9 10 11 12 13 13 13
12 12 14 19 21 22 22 22 21 22 23 25 28 31 33 34 35 35 34 33 32 31 31 29 28 28 28 29 30 31 30 30 31 32 32 32 32 31 29 27 24 22 20 20 19 19 18 18 17 17 17 17 17 17 16 16 15 15 14 14 14 14 14 13 12 11 10 10 9 9 8 8 8 8 8 8 8 9 10 11 11 12 12 12 13 14 14
16 16 18 21 24 25 26 27 25 24 24 26 29 31 33 34 34 34 32 31 31 31 31 29 28 29 29 30 31 32 33 33 34 35 34 33 32 29 28 26 24 22 20 19 19 19 19 19 18 18 18 17 17 17 16 16 15 15 15 15 14 14 13 12 11 11 10 9 9 9 8 8 9 9 9 10 10 11 11 12 12 12 12 13 13 14 14
21 23 23 22 22 24 26 27 27 27 27 28 30 33 34 34 34 33 31 30 29 29 29 29 29 30 31 31 32 33 34 34 34 35 34 32 30 28 26 25 24 22 21 20 19 19 19 19 19 18 18 17 17 17 16 16 16 15 15 14 14 13 12 11 11 10 10 9 9 9 9 10 10 11 11 12 12 12 12 12 12 12 12 13 13 13 14
20 23 23 22 22 23 24 26 27 28 29 29 30 32 34 35 34 32 31 29 28 28 29 29 30 30 31 31 32 33 33 33 33 33 32 30 28 27 25 24 23 22 21 21 20 20 20 20 19 19 18 17 17 17 16 16 16 15 14 14 13 12 12 11 11 10 10 10 10 10 11 11 12 12 12 12 12 12 12 12 12 12 12 13 14 14 15
16 19 21 22 21 21 23 25 25 24 26 27 27 28 30 32 32 31 30 29 29 29 30 30 30 30 31 31 31 31 32 32 31 30 29 27 26 25 24 23 22 21 21 21 21 21 20 20 19 19 18 18 17 17 16 16 15 15 14 13 13 12 12 11 11 10 10 10 11 11 12 12 12 13 13 13 13 13 12 12 13 13 13 14 15 15 16
12 14 17 19 19 20 21 23 23 21 22 24 25 25 26 28 29 29 28 27 28 29 30 29 29 29 29 30 30 31 31 30 28 27 26 25 25 24 23 23 22 21 20 20 20 20 20 19 19 19 18 18 17 16 16 15 15 14 14 13 13 12 11 11 10 10 11 11 11 11 12 12 13 13 13 13 13 13 13 13 14 14 15 16 16 17 17
11 12 13 15 17 17 18 20 22 21 21 22 23 24 25 26 27 27 26 26 27 29 29 28 28 28 29 29 30 30 29 28 26 25 24 24 24 23 22 22 21 21 20 19 19 19 19 19 19 18 18 17 17 16 15 14 14 14 13 13 12 12 11 10 10 11 11 11 11 12 12 12 13 13 13 13 13 14 14 15 15 16 16 17 17 17 18
10 9 11 12 14 14 15 17 19 20 21 22 22 22 23 25 25 25 25 26 26 27 27 27 27 28 28 29 29 28 28 26 25 24 23 23 23 22 22 22 21 21 21 20 19 19 19 19 19 18 17 17 16 15 14 14 14 14 13 13 12 11 11 11 11 11 11 11 12 12 12 13 13 13 13 14 14 15 15 16 16 17 17 18 18 18 18
10 9 9 10 11 13 13 14 16 18 20 21 21 21 22 23 24 24 24 24 25 26 26 26 26 26 27 27 27 27 26 25 24 23 22 21 21 22 22 21 21 21 21 20 20 19 19 19 18 17 16 16 15 15 15 15 14 14 13 12 11 11 11 11 11 12 12 12 12 12 13 13 13 14 15 15 15 16 16 17 17 18 18 18 18 18 18
9 8 7 8 10 11 11 12 14 16 19 20 21 21 21 22 22 22 23 23 24 25 26 26 26 26 25 26 25 24 24 23 23 23 22 21 20 20 20 20 20 21 21 20 20 19 19 18 17 16 16 15 15 15 15 15 14 13 12 11 11 11 11 12 12 12 12 13 13 13 14 14 15 15 16 16 16 17 17 18 18 18 18 18 18 18 18
9 7 6 6 7 8 9 11 13 15 17 19 20 20 20 21 21 20 21 22 23 25 26 27 26 24 23 22 22 22 22 22 22 22 21 21 19 19 18 18 18 19 19 19 18 18 17 16 16 16 16 16 16 16 15 14 13 12 12 11 12 12 12 12 12 13 13 14 14 14 15 15 16 16 16 17 17 18 18 18 18 18 18 18 18 18 18
7 6 4 3 4 6 7 9 10 13 15 17 19 19 20 21 20 19 20 22 23 24 25 25 24 22 21 20 20 20 20 21 21 20 20 20 20 20 20 18 17 17 17 17 17 17 16 16 16 16 16 16 15 15 14 13 12 12 12 12 12 12 12 13 13 14 14 15 15 16 16 16 16 17 17 17 18 18 18 18 19 18 18 19 19 19 19
6 4 3 1 2 5 6 7 9 10 12 15 18 19 20 20 21 20 20 21 22 23 23 22 21 20 19 18 18 18 18 19 19 19 19 19 19 19 19 18 17 16 16 16 16 16 16 17 17 16 16 15 14 13 12 12 12 12 12 12 12 13 13 14 15 15 16 16 16 16 17 17 17 18 18 18 19 19 19 19 19 19 19 19 20 19 20
4 2 1 0 1 3 5 6 8 8 10 13 16 18 19 19 19 19 18 17 18 20 19 19 18 17 17 17 16 17 17 18 18 18 18 17 16 16 16 17 17 17 16 16 16 17 16 16 16 15 14 13 12 11 11 11 12 12 12 13 13 14 15 16 16 16 17 17 17 17 18 18 18 19 19 19 19 19 20 20 20 20 20 21 21 21 21
3 1 1 2 3 4 5 6 7 8 9 11 14 16 17 17 17 18 17 16 16 17 17 17 17 17 16 15 15 15 15 16 17 17 17 16 15 14 14 15 16 16 16 16 16 16 15 14 13 12 11 11 11 11 12 12 12 13 13 14 15 16 16 16 17 17 18 18 18 19 19 19 19 20 20 20 20 20 21 21 21 21 21 22 22 22 22
1 1 3 5 5 6 7 7 8 10 12 13 15 16 16 16 16 17 17 16 16 17 17 17 17 17 16 16 15 14 14 14 15 15 15 16 15 14 14 15 15 16 16 15 14 13 12 11 11 10 11 11 11 12 12 12 13 14 15 15 16 17 17 18 18 18 19 19 19 19 20 20 20 21 21 21 21 21 22 23 23 22 22 22 23 23 22
2 1 3 5 7 8 9 10 12 14 16 17 17 17 17 16 16 17 17 16 16 17 17 17 17 17 16 16 15 15 14 14 13 13 14 15 15 14 14 14 14 14 13 13 12 11 10 10 10 10 11 11 12 12 13 14 14 15 16 17 17 18 18 19 19 19 19 19 20 20 20 21 21 21 22 22 22 23 23 24 23 23 23 23 23 23 23
5 5 6 8 9 10 11 12 15 17 18 18 19 19 18 17 17 18 17 16 16 16 17 17 17 16 15 15 14 13 13 12 11 11 13 14 14 13 13 13 12 12 11 11 10 10 10 10 10 11 11 12 13 14 14 15 16 17 17 18 18 19 19 19 19 20 20 20 21 21 21 22 22 22 23 23 23 24 24 24 24 24 23 24 24 24 24
10 11 11 12 13 14 14 15 17 18 18 19 19 19 17 17 18 19 18 16 15 15 16 17 17 16 14 14 13 12 12 11 11 12 12 12 12 12 11 11 10 9 9 9 9 9 10 10 11 12 13 13 14 15 16 17 17 18 18 19 19 19 20 20 20 20 21 21 22 22 22 22 23 23 23 24 24 24 24 24 24 24 24 24 25 25 25
17 18 18 18 18 19 20 21 20 20 20 20 19 19 18 18 20 21 19 17 15 15 14 15 17 16 15 13 13 13 12 11 11 11 11 10 10 10 9 8 8 8 8 8 9 10 11 11 12 14 14 15 16 17 17 18 18 19 19 20 20 20 20 21 21 21 22 22 23 23 23 23 24 24 24 24 25 25 25 25 25 25 25 25 26 26 26
Wind_Direction
242 255 233 170 191 196 197 205 195 194 191 183 198 216 223 221 208 242 251 224 231 253 246 218 229 228 230 246 247 248 251 250 245 239 237 241 247 258 269 275 276 279 283 282 284 289 290 284 280 284 292 292 283 274 269 263 256 253 250 247 245 243 241 239 236 231 229 228 228 230 232 234 237 239 237 234 233 235 237 238 236 231 227 224 222 220 220
249 257 237 181 204 217 202 212 201 194 193 193 205 217 223 224 220 239 253 246 244 252 244 207 218 225 232 243 251 255 258 257 258 256 251 252 256 260 265 268 269 274 279 280 281 285 287 286 286 289 291 290 285 278 272 266 259 254 251 247 245 243 243 242 239 234 230 229 229 232 233 233 234 237 239 238 236 236 239 239 236 231 226 224 222 221 222
256 258 246 194 192 213 223 228 217 209 208 207 213 221 223 223 228 239 246 255 261 257 222 197 221 226 232 247 255 257 257 255 257 261 260 260 262 263 265 268 271 274 276 277 278 280 283 285 286 289 289 287 284 280 274 268 261 254 251 249 246 244 243 242 240 237 232 229 229 233 233 231 231 235 240 241 238 238 240 240 237 232 226 223 223 223 223
248 251 249 224 182 207 242 244 229 217 216 216 217 222 222 212 220 233 241 252 260 253 155 190 220 217 223 239 242 244 248 247 248 253 257 259 261 262 265 267 271 274 274 275 278 279 280 282 282 284 285 283 282 281 277 272 263 255 251 250 248 245 243 241 240 239 235 230 230 232 232 230 230 234 239 239 237 240 242 240 237 232 226 224 224 224 224
242 248 250 236 190 209 241 239 231 223 218 216 218 228 230 220 213 220 228 238 249 248 173 201 223 203 211 229 231 235 244 246 247 249 251 255 258 260 263 266 269 272 273 273 276 277 278 278 277 278 279 278 279 279 277 271 261 254 251 250 248 245 243 241 239 239 237 234 232 231 231 232 231 233 238 236 234 240 243 239 237 232 227 225 224 225 226
246 249 238 192 204 224 234 235 233 229 218 209 216 227 230 225 215 222 236 246 256 259 239 229 231 216 223 235 235 237 244 249 251 253 253 255 258 260 262 265 267 270 271 273 275 276 276 274 273 272 272 273 275 275 272 263 251 247 248 247 246 244 242 241 239 238 236 235 234 233 233 234 232 234 239 238 235 238 242 240 237 234 230 227 225 226 227
246 244 176 189 224 226 238 253 240 230 219 213 220 230 237 234 224 229 244 253 257 255 248 245 243 237 240 246 245 244 247 251 252 253 256 258 259 261 263 266 269 271 272 275 276 274 271 268 265 265 266 269 272 271 266 255 244 242 243 244 244 242 240 240 238 237 235 234 234 233 233 235 235 236 241 243 240 240 241 240 239 237 234 230 229 229 229
222 208 194 220 239 251 285 280 255 223 215 217 222 237 246 241 229 226 234 243 248 251 250 249 249 250 254 257 256 251 249 250 251 251 255 259 262 267 271 272 274 276 276 276 274 269 266 263 260 261 262 264 268 267 259 247 239 239 240 240 241 239 238 238 237 236 235 233 233 233 233 235 236 236 241 246 245 244 243 242 240 238 236 233 231 231 231
200 222 225 236 282 306 273 257 240 181 181 196 196 224 246 241 228 224 227 239 246 248 250 251 251 254 265 272 265 258 252 251 253 254 259 265 269 272 275 275 276 277 276 274 272 269 266 263 259 260 261 262 263 260 250 240 234 234 236 237 237 236 236 236 236 236 235 234 233 234 234 236 237 238 242 246 248 248 247 245 244 242 240 237 234 234 233
194 223 237 237 250 248 244 249 236 178 187 196 178 201 247 250 230 219 220 236 243 244 252 252 241 235 256 272 266 262 258 256 257 259 263 267 269 269 270 271 271 271 271 271 272 272 269 265 261 259 259 258 254 248 239 232 228 229 230 230 230 230 231 233 234 235 236 236 236 235 234 236 238 241 245 248 250 250 249 249 248 247 246 242 239 238 237
195 217 233 229 230 231 240 253 244 180 184 179 137 164 243 256 238 214 211 230 238 241 248 238 185 178 236 256 261 262 263 262 260 260 260 260 261 261 260 261 262 264 267 268 269 270 267 263 258 253 249 244 238 231 223 215 213 214 213 212 214 216 220 225 228 232 234 236 236 236 235 236 238 244 249 251 251 251 249 250 250 250 249 246 242 241 240
214 221 232 232 238 244 242 251 241 174 166 145 118 191 238 253 239 211 204 216 227 235 239 221 157 185 223 239 259 264 264 262 257 253 253 252 251 250 248 251 256 260 263 264 264 263 258 251 244 237 230 223 213 202 193 186 181 176 172 172 176 184 194 202 210 218 225 228 231 232 233 235 238 244 248 250 250 250 250 251 252 251 252 251 248 246 244
222 223 234 244 239 240 244 236 174 157 147 137 171 218 228 250 213 199 201 205 216 230 231 204 191 227 232 237 251 261 261 256 249 241 239 237 237 244 250 254 256 256 257 258 257 252 243 233 224 215 204 193 180 166 159 155 152 150 150 153 157 163 169 176 184 193 201 209 215 219 224 230 234 238 242 243 245 246 246 247 249 249 249 249 249 248 246
222 222 236 248 245 232 218 174 152 151 149 186 216 216 311 337 219 195 199 204 216 227 226 213 219 234 238 238 245 252 253 249 240 231 231 234 243 255 257 255 251 247 247 246 239 227 213 196 186 178 167 159 154 149 147 147 147 148 148 151 154 155 158 161 165 169 175 182 190 197 206 212 216 219 223 224 224 225 226 227 231 233 235 237 240 243 244
211 226 227 226 250 229 171 140 135 171 198 230 223 214 274 260 238 218 205 206 217 225 225 225 228 234 238 238 240 242 242 241 238 238 240 244 247 248 244 239 235 229 224 215 201 188 175 164 159 154 150 150 149 148 148 149 149 151 152 153 154 154 155 157 157 160 164 168 174 180 185 189 193 196 200 201 202 206 209 214 218 221 224 227 230 232 235
199 218 216 208 273 208 164 156 176 209 212 237 254 233 245 242 234 228 213 210 218 222 226 231 230 229 233 235 235 235 234 235 238 239 239 237 232 225 218 214 208 199 194 187 177 168 160 154 151 148 150 152 152 151 152 152 153 154 153 153 153 153 153 154 155 158 161 164 168 171 174 178 181 184 188 192 195 198 201 205 208 209 212 215 217 220 224
206 223 240 265 330 265 188 195 238 218 218 243 261 258 269 265 245 233 222 217 218 221 227 231 228 227 230 229 229 229 227 227 228 224 220 216 209 203 198 191 183 179 179 178 171 164 158 154 151 149 151 155 154 153 152 151 151 150 148 148 148 149 150 152 155 157 160 163 166 168 171 174 176 178 182 184 185 187 189 190 191 193 196 200 207 214 220
248 261 259 262 290 281 240 231 240 234 233 245 249 251 263 270 266 259 245 234 229 228 231 231 228 229 229 225 224 223 220 218 214 207 203 196 189 188 185 180 175 173 173 173 169 164 158 155 153 150 150 154 155 151 148 147 146 146 147 147 148 150 151 153 155 157 159 162 163 165 167 169 170 171 173 174 173 174 176 177 176 180 186 191 199 209 218
223 243 240 227 240 253 246 233 230 233 238 243 248 253 254 254 259 264 261 250 241 237 236 234 232 230 226 222 219 216 212 208 200 193 190 185 182 182 181 178 174 171 171 170 166 163 159 155 154 152 151 152 153 150 148 148 146 147 150 149 150 151 151 152 153 155 157 159 160 161 163 164 165 166 166 166 166 165 165 166 166 168 172 176 184 195 210
219 237 252 249 251 254 251 242 235 233 236 241 248 255 254 251 252 254 256 253 245 239 238 236 234 231 225 221 217 210 202 197 190 186 185 183 180 177 176 175 169 166 169 167 162 162 161 155 154 154 152 151 151 149 148 148 147 148 149 148 148 148 148 149 151 152 154 157 157 158 158 157 157 156 155 153 151 149 149 147 145 147 151 160 183 203 223
241 265 268 267 276 285 270 256 249 244 244 245 247 250 251 249 247 246 248 249 246 240 237 234 233 228 220 214 212 204 195 188 184 181 180 179 177 172 168 165 161 162 165 164 162 163 160 154 152 152 151 150 149 148 147 147 147 146 145 145 145 145 145 148 149 149 151 152 151 151 150 149 147 145 142 141 139 139 140 140 143 154 166 187 218 236 253
243 251 250 247 254 276 269 261 257 256 255 250 248 249 250 249 248 245 243 241 236 228 225 228 229 224 214 206 202 197 189 184 180 179 176 174 170 165 160 155 156 161 163 162 164 162 155 151 150 149 148 147 145 144 142 141 142 143 142 142 143 143 144 145 145 145 145 144 142 142 141 140 140 139 138 138 140 143 149 156 164 178 191 219 255 273 283
246 255 259 251 230 247 264 266 267 269 266 258 251 251 250 249 247 242 235 230 221 211 210 214 216 217 214 206 196 188 182 178 176 174 172 169 165 161 157 155 157 162 163 163 163 159 150 146 146 146 146 144 141 141 139 137 138 142 143 143 144 143 141 141 140 139 139 139 139 139 139 139 141 143 146 152 156 158 165 172 182 208 244 272 284 287 288
254 263 265 259 242 245 260 267 268 269 268 261 253 250 248 244 239 232 225 222 219 214 210 202 199 206 208 199 189 182 177 174 172 170 168 167 165 162 159 159 161 162 161 159 158 154 147 144 145 146 145 142 141 141 140 138 138 141 144 147 146 143 141 142 141 141 143 144 144 146 149 152 155 158 163 168 168 169 176 196 232 260 270 275 277 277 278
250 257 260 257 250 249 256 262 264 263 260 255 250 247 243 237 230 223 217 216 220 224 220 204 192 193 194 188 182 179 175 171 170 169 167 165 165 164 160 161 162 159 156 156 156 152 147 146 148 148 147 144 143 143 143 143 142 142 145 149 148 146 145 147 148 149 151 154 156 158 162 166 168 170 175 182 192 206 221 236 249 255 257 262 265 268 273
250 252 254 255 254 252 251 253 256 258 256 251 246 243 238 230 222 215 213 214 217 219 215 203 189 184 185 183 179 178 176 171 168 170 169 167 165 163 160 159 160 158 155 156 155 152 149 150 151 152 152 150 149 149 149 149 149 150 152 153 154 154 153 155 158 161 162 166 170 172 173 177 179 184 192 206 222 236 241 241 242 244 247 254 261 268 274
250 248 248 250 255 253 249 249 254 259 259 253 244 237 232 225 217 211 208 208 207 203 198 193 186 182 182 182 180 179 177 173 170 170 170 168 165 161 160 160 160 158 158 158 156 154 154 155 156 158 158 157 156 157 158 156 157 161 163 164 166 168 166 168 173 175 176 178 181 182 185 189 194 203 212 218 223 226 229 230 234 239 245 254 264 273 279
251 247 241 237 243 250 252 254 256 256 255 251 240 232 227 219 211 205 201 196 193 191 188 187 189 188 185 183 183 181 179 175 172 170 170 168 166 164 163 162 162 162 161 160 159 158 159 160 162 164 166 165 164 166 166 165 166 170 174 178 181 183 183 183 184 185 186 186 187 191 196 199 202 207 210 213 215 218 221 228 234 242 250 257 265 274 281
250 247 241 237 241 250 256 256 251 248 247 244 233 224 218 210 201 198 196 191 188 187 185 186 190 191 187 185 184 183 180 176 173 172 173 173 171 169 167 165 165 166 165 164 164 164 165 167 169 172 174 174 173 174 175 176 177 181 185 189 191 192 192 190 189 190 192 192 193 196 198 200 203 205 206 209 213 216 221 230 239 248 258 264 271 279 285
250 244 238 236 238 245 250 251 246 241 238 233 221 212 209 205 198 193 191 187 185 185 185 184 185 186 185 183 183 184 183 181 179 179 180 177 173 171 170 169 169 170 171 172 171 170 171 174 177 179 182 183 182 184 186 187 188 191 193 193 194 194 195 194 193 194 195 196 197 198 198 199 201 202 204 209 214 219 226 236 245 255 264 272 279 283 285
251 239 233 232 233 238 245 246 242 237 232 225 214 206 201 200 196 191 186 183 183 184 184 182 182 184 184 184 185 187 187 187 186 185 183 179 175 174 174 175 176 176 176 177 178 178 179 182 185 188 190 191 191 192 193 193 194 196 197 198 199 198 198 197 197 197 197 198 198 198 199 201 202 204 209 215 220 225 233 241 251 261 269 275 278 280 282
246 233 232 233 234 238 243 240 235 232 227 219 211 206 202 199 196 192 188 187 187 188 189 190 191 191 191 190 190 190 190 191 191 189 185 182 180 179 179 179 180 181 181 182 184 186 187 190 193 195 195 195 196 196 195 195 197 199 200 201 201 200 200 199 200 200 199 200 201 202 204 208 211 215 221 225 229 234 241 248 256 263 268 272 275 278 282
232 226 234 238 237 238 240 238 233 231 229 224 219 213 207 202 198 196 194 194 193 194 195 197 197 197 195 194 193 192 193 193 192 189 187 185 183 183 182 181 181 183 186 188 190 192 194 196 198 198 197 196 198 198 198 199 199 200 201 202 202 202 202 202 202 203 203 204 206 210 213 217 221 225 229 232 237 242 247 254 259 263 267 271 274 277 280
228 234 243 246 244 242 242 240 236 232 230 228 223 216 210 205 203 201 201 201 200 199 199 199 198 197 196 196 196 196 196 195 191 188 187 187 186 185 184 183 183 185 189 192 195 196 197 197 198 198 199 200 200 200 200 201 201 201 202 204 204 205 206 206 205 206 209 211 213 216 221 224 228 231 234 237 242 248 254 259 263 265 268 270 272 274 278
233 239 245 251 254 253 249 246 242 236 231 226 222 217 212 209 208 208 209 210 209 206 201 199 199 198 197 198 198 198 197 196 194 190 189 188 188 187 187 187 188 190 192 195 197 198 198 199 199 200 202 202 202 201 201 201 202 203 205 206 207 207 207 208 208 208 211 215 218 223 228 230 232 235 237 242 250 256 260 263 265 266 267 270 272 276 281
239 243 246 251 257 257 251 246 244 240 234 229 226 221 215 212 212 213 214 213 210 207 203 200 198 197 197 198 198 197 196 196 194 192 191 190 190 191 192 193 195 197 198 198 198 199 200 202 202 202 203 203 202 203 203 203 204 206 207 207 208 208 208 209 210 212 215 220 224 229 232 233 235 238 243 250 256 260 262 264 265 267 270 273 277 282 287
246 247 248 249 253 256 250 243 241 240 234 230 229 226 220 216 215 215 214 212 209 206 204 201 199 198 197 196 196 196 195 194 194 194 193 193 193 193 194 195 198 200 201 202 202 201 201 202 202 203 204 203 203 204 205 206 206 207 207 207 207 208 210 212 214 217 221 225 228 232 234 236 240 244 249 254 257 259 262 265 268 271 275 279 282 286 289
255 251 251 249 250 253 249 242 238 236 231 228 228 227 223 220 217 214 212 211 209 206 202 199 198 199 197 195 194 194 194 193 193 194 194 194 194 195 196 197 198 200 201 203 204 203 202 203 205 205 205 205 205 206 207 207 207 206 207 208 208 210 212 215 218 222 227 229 232 236 238 241 245 249 252 255 258 261 265 269 272 276 279 282 285 288 290
268 258 255 251 248 250 248 241 236 231 226 224 225 223 218 216 215 213 210 208 207 204 201 199 198 198 197 195 194 193 191 190 191 192 194 195 195 196 197 198 199 199 200 202 203 204 204 205 206 206 206 206 206 206 207 208 208 207 207 209 210 212 216 220 224 229 232 235 237 241 244 246 249 252 255 259 262 266 269 272 276 279 281 284 287 289 291
292 277 267 259 253 250 246 239 232 226 218 216 217 216 211 209 209 207 205 204 203 201 200 200 200 198 196 195 193 190 188 188 189 191 195 196 197 197 198 199 198 198 199 201 202 203 205 206 205 205 206 205 206 207 208 208 208 208 209 210 213 217 222 227 230 234 237 239 242 244 246 250 253 256 259 263 266 269 273 276 278 281 283 285 287 289 290
312 297 281 269 261 255 246 235 226 217 208 203 204 206 204 203 202 202 201 201 201 199 198 199 200 198 195 193 192 190 188 188 188 190 193 196 198 199 199 199 199 199 201 203 203 203 204 205 204 204 205 206 207 208 208 208 208 209 211 213 219 224 228 232 235 238 240 243 245 248 251 254 257 260 263 267 270 273 276 279 280 282 284 285 287 288 289
322 309 292 278 269 258 245 230 218 208 199 194 195 197 199 198 199 200 200 199 199 198 196 195 196 197 195 193 192 191 190 190 190 191 192 195 198 201 202 203 203 202 202 203 203 203 203 204 204 205 206 207 207 208 208 208 209 211 214 220 225 229 232 236 239 241 244 246 249 252 255 258 261 264 267 270 273 276 278 280 281 283 284 285 287 288 288
328 319 303 286 273 257 241 228 214 202 193 188 187 189 192 193 194 197 199 198 197 196 193 191 191 193 195 195 195 194 194 193 194 195 194 193 194 197 201 205 207 205 203 203 203 203 204 205 206 206 207 207 206 206 207 209 212 216 221 226 229 233 237 240 243 246 249 252 254 257 259 262 265 268 271 274 277 279 280 282 283 284 285 286 286 286 286
332 324 314 297 269 247 234 223 209 196 187 181 178 181 185 185 184 188 192 192 191 190 189 189 189 190 192 195 197 197 197 197 196 196 197 196 196 196 198 200 203 204 203 203 203 204 205 205 205 205 206 205 205 207 209 213 218 222 227 231 235 238 242 245 248 251 254 256 259 261 264 267 271 274 276 278 280 282 283 284 285 285 286 286 286 286 286
325 323 322 305 239 223 219 212 202 192 181 174 171 172 174 174 174 177 180 183 185 185 185 188 190 190 190 191 193 195 197 197 195 196 199 201 203 204 202 199 198 200 202 203 203 203 203 203 203 203 204 205 207 211 214 219 224 229 233 237 241 243 246 250 253 255 258 261 264 267 270 273 275 278 279 281 282 284 285 285 286 286 287 287 286 286 286
324 320 329 20 182 193 197 194 188 179 173 170 167 164 161 163 166 167 168 173 180 181 180 183 186 185 185 188 190 192 194 195 195 197 199 200 203 207 206 202 198 198 199 200 200 200 201 201 202 203 206 208 212 217 222 226 231 235 239 242 246 248 251 255 258 260 264 267 269 272 275 277 278 280 281 282 283 284 284 284 285 285 286 286 286 286 286
310 276 127 115 130 148 157 164 167 165 163 164 160 153 149 152 157 158 158 163 170 172 172 174 177 178 180 183 187 193 197 199 199 197 196 195 196 198 200 200 198 196 196 197 198 198 200 201 203 206 210 214 219 224 229 233 237 242 245 248 252 255 258 261 263 266 268 271 273 275 277 278 279 280 281 281 282 282 282 283 283 284 284 284 285 285 284
291 175 132 125 126 125 129 143 156 153 147 146 147 144 141 144 148 150 151 155 161 165 166 167 170 173 176 179 182 188 192 195 197 197 192 189 189 190 191 192 193 193 193 194 196 198 200 204 207 212 218 223 227 232 236 240 245 249 252 255 258 261 263 265 267 269 270 272 274 276 277 278 279 279 280 280 281 282 282 282 283 283 283 283 284 284 284
19 72 115 122 122 122 130 142 145 138 133 135 138 137 136 139 143 144 145 150 157 161 162 162 164 168 171 174 178 181 180 181 187 193 189 183 181 182 183 185 188 189 191 194 198 201 206 211 216 221 227 232 236 241 245 249 253 256 258 260 263 264 266 268 270 272 274 276 277 278 278 279 279 279 280 280 281 281 281 282 282 282 283 283 283 284 284
57 79 105 114 116 120 129 134 131 127 127 130 130 130 132 139 140 137 136 141 149 154 155 154 154 155 157 160 163 167 167 167 170 176 178 175 175 176 179 182 186 190 194 198 203 209 216 222 228 234 240 244 248 251 254 256 258 260 262 264 266 268 270 272 274 276 277 278 278 278 279 279 279 279 280 280 280 280 281 281 282 282 282 282 283 283 284
84 90 96 99 103 108 111 112 113 115 117 119 120 122 128 133 132 127 125 130 137 142 145 144 140 137 139 144 145 147 151 154 154 157 164 168 169 173 178 184 189 195 201 208 216 225 232 238 243 247 250 253 256 258 259 261 263 265 267 269 270 272 274 276 277 277 278 278 278 278 279 279 279 279 280 280 280 280 280 280 281 281 281 282 282 283 283
90 90 90 92 95 97 96 96 98 101 104 107 111 114 118 122 123 120 117 118 122 127 134 138 134 128 126 130 133 135 138 144 147 151 157 162 165 172 181 189 197 207 216 224 231 238 243 247 251 253 256 258 260 262 264 266 268 270 272 273 275 276 277 277 278 278 279 278 279 279 279 279 280 280 280 280 280 280 280 280 280 280 281 281 282 282 283